Location: Nashville
(36.1660°N, 86.7840°W)
Time: 00:19:13
(UTC-05:00)

CAS-4B - Visible Passes

Search period start: 21 May 2022 00:00
Search period end: 31 May 2022 00:00
Orbit: 526 x 536 km, 43.0° (Epoch: 20 May)

Date Brightness Start Highest point End Pass type
(mag) Time Alt. Az. Time Alt. Az. Time Alt. Az.
21 May ? 20:50:41 10° W 20:54:37 49° NNW 20:58:34 10° ENE visible
21 May ? 22:31:36 10° WNW 22:35:11 30° N 22:36:24 25° NNE visible
22 May ? 20:38:38 10° W 20:42:31 44° NNW 20:46:24 10° ENE visible
22 May ? 22:19:31 10° WNW 22:23:07 30° N 22:24:44 22° NE visible
22 May ? 23:59:41 10° WNW 23:59:58 12° WNW 23:59:58 12° WNW visible
23 May ? 20:26:36 10° W 20:30:25 39° NNW 20:34:15 10° ENE visible
23 May ? 22:07:26 10° WNW 22:11:03 30° N 22:12:59 20° NE visible
23 May ? 23:47:31 10° WNW 23:48:12 14° WNW 23:48:12 14° WNW visible
24 May ? 21:55:19 10° WNW 21:58:58 32° N 22:01:09 19° ENE visible
24 May ? 23:35:20 10° WNW 23:36:22 17° WNW 23:36:22 17° WNW visible
25 May ? 21:43:10 10° WNW 21:46:52 33° N 21:49:19 18° ENE visible
25 May ? 23:23:09 10° WNW 23:24:31 20° WNW 23:24:31 20° WNW visible
26 May ? 21:31:00 10° WNW 21:34:46 36° NNE 21:37:26 17° ENE visible
26 May ? 23:10:59 10° WNW 23:12:38 23° WNW 23:12:38 23° WNW visible
27 May ? 21:18:49 10° WNW 21:22:38 39° NNE 21:25:34 15° ENE visible
27 May ? 22:58:49 10° WNW 23:00:46 27° WNW 23:00:46 27° WNW visible
28 May ? 21:06:36 10° WNW 21:10:30 43° NNE 21:13:41 14° E visible
28 May ? 22:46:40 10° WNW 22:48:54 29° W 22:48:54 29° W visible
29 May ? 20:54:23 10° WNW 20:58:20 49° NNE 21:01:50 13° E visible
29 May ? 22:34:31 10° WNW 22:37:03 30° WSW 22:37:03 30° WSW visible
30 May ? 20:42:09 10° WNW 20:46:09 57° NNE 20:50:00 11° E visible
30 May ? 22:22:26 10° W 22:25:13 28° WSW 22:25:13 28° WSW visible
